Location: *
(51.4660°N, 0.3360°W)
Time: 19:20:14
(UTC+00:00)

SPOT 3 Rocket - Pass Details

Date: 19 September 2019
Orbit: 779 x 794 km, 98.8° (Epoch: 16 October)

Event Time Altitude Azimuth Distance (km) Brightness Sun altitude
Exits shadow 19:41:13 - 167° (SSE) 2,773 6.1 -15.0°
Reaches altitude 10° 19:42:20 10° 168° (SSE) 2,329 5.7 -15.2°
Maximum altitude 19:47:28 78° 255° (WSW) 804 3.7 -15.9°
Drops below altitude 10° 19:52:39 10° 342° (NNW) 2,348 6.6 -16.7°
Sets 19:54:59 0° 344° (NNW) 3,282 7.4 -17.0°
